Temp
19 18 18 18 17 17 17 18 18 18 18 18 18 18 18 18 18 18 19 19 19 19
20 19 19 18 18 18 18 18 18 18 19 19 18 18 18 18 18 18 18 18 18 19
20 20 20 19 18 18 18 18 18 18 18 19 18 18 18 18 18 18 18 18 18 18
21 20 20 19 19 19 18 18 18 18 18 18 18 19 18 18 18 18 18 18 18 18
20 19 19 20 19 18 18 18 18 18 18 18 18 18 18 18 18 18 18 18 18 18
19 20 20 21 21 19 19 19 18 18 18 18 19 18 18 18 18 18 18 18 18 19
19 19 19 19 19 19 19 19 19 19 18 18 18 18 19 18 18 18 19 19 18 18
18 18 19 18 19 19 19 19 19 19 19 18 18 18 18 18 18 18 18 18 18 18
17 17 18 18 18 18 18 18 18 18 19 19 19 18 18 18 18 18 18 18 18 18
17 17 17 17 17 17 18 18 18 17 17 18 19 19 18 18 18 18 18 18 18 18
17 17 17 16 16 16 17 17 17 17 17 16 17 17 18 18 18 18 18 17 18 18
16 16 16 16 16 16 16 16 16 16 16 16 16 16 17 17 17 17 17 17 18 18
15 15 15 15 15 15 15 15 15 15 15 16 16 16 16 17 17 16 17 17 17 17
14 14 14 15 14 14 14 14 15 15 15 15 16 15 15 16 16 17 16 16 16 17
Height
1542 1543 1544 1545 1547 1548 1549 1549 1550 1552 1554 1557 1560 1562 1563 1565 1566 1566 1567 1568 1568 1567
1538 1540 1543 1544 1545 1545 1545 1546 1546 1547 1549 1551 1554 1557 1559 1561 1562 1563 1564 1565 1565 1565
1538 1539 1540 1540 1540 1541 1543 1543 1543 1543 1544 1547 1549 1551 1554 1556 1558 1559 1560 1561 1561 1562
1535 1538 1539 1538 1538 1538 1539 1541 1541 1542 1542 1543 1544 1546 1548 1551 1553 1554 1555 1556 1556 1557
1529 1522 1531 1531 1530 1535 1535 1538 1540 1541 1541 1541 1541 1543 1544 1545 1547 1548 1550 1551 1551 1552
1530 1529 1530 1528 1528 1530 1531 1532 1534 1535 1535 1535 1536 1537 1539 1540 1541 1541 1542 1544 1546 1547
1526 1525 1525 1525 1524 1526 1524 1526 1528 1528 1528 1528 1529 1530 1532 1533 1534 1535 1535 1537 1539 1540
1524 1523 1522 1522 1521 1519 1518 1520 1520 1520 1519 1520 1521 1522 1524 1526 1527 1528 1530 1531 1532 1533
1523 1521 1520 1519 1518 1517 1515 1514 1512 1511 1511 1511 1512 1513 1516 1518 1519 1520 1521 1522 1524 1525
1518 1518 1517 1516 1514 1512 1510 1508 1506 1504 1504 1503 1504 1506 1507 1508 1509 1509 1510 1511 1513 1515
1511 1510 1510 1509 1508 1506 1504 1501 1499 1498 1497 1496 1496 1496 1496 1498 1500 1498 1500 1502 1504 1504
1504 1503 1502 1500 1499 1497 1495 1493 1491 1490 1489 1488 1489 1489 1489 1488 1487 1488 1487 1491 1496 1497
1496 1495 1493 1492 1490 1488 1487 1484 1483 1480 1480 1479 1479 1481 1481 1481 1479 1479 1481 1467 1482 1490
1489 1487 1485 1482 1481 1479 1476 1475 1473 1471 1470 1470 1470 1470 1471 1472 1470 1470 1471 1472 1475 1473
Wind_Speed
14 16 17 16 15 15 14 15 17 20 23 24 23 20 16 15 12 13 12 11 12 10
12 13 14 14 15 16 14 15 17 21 25 23 23 22 18 17 14 14 13 13 12 11
11 12 12 13 16 17 16 16 17 22 25 25 24 24 21 20 20 18 16 16 15 15
15 14 13 13 15 18 17 19 20 20 23 25 24 24 23 22 20 19 19 20 19 20
17 14 16 15 18 19 20 20 22 23 24 24 24 24 24 22 22 24 24 24 24 21
10 10 17 17 21 20 19 21 24 26 28 28 28 28 28 28 25 25 29 27 23 24
10 9 10 12 20 25 23 22 22 25 29 31 30 31 30 29 28 28 26 27 25 26
10 9 11 12 14 17 21 27 28 28 27 28 34 32 32 30 29 29 28 27 32 28
11 10 10 14 16 17 19 21 24 25 28 31 29 33 35 33 33 32 31 32 30 31
15 15 14 15 16 18 19 21 22 23 22 26 31 31 31 34 38 36 35 35 33 33
20 22 21 21 21 22 23 25 25 25 25 23 24 28 32 34 36 40 40 37 35 34
26 26 26 27 28 29 28 28 29 28 28 26 27 26 25 26 31 32 39 38 40 35
27 28 31 32 34 34 33 32 32 33 33 33 32 27 28 27 28 28 32 34 50 42
26 27 28 29 30 31 32 33 35 36 34 32 32 32 27 28 29 29 29 32 34 37
Wind_Direction
268 274 268 259 254 259 259 245 241 230 223 227 233 240 247 247 255 259 264 272 269 274
295 284 279 267 258 254 256 245 239 232 229 229 233 237 244 248 252 260 261 268 265 270
293 304 289 274 256 255 256 249 237 233 230 230 235 236 242 250 252 258 255 255 262 263
285 293 294 281 274 262 255 250 243 236 229 232 233 235 241 245 251 255 259 255 258 258
284 284 273 276 272 268 260 253 249 246 241 240 241 240 241 243 251 253 257 267 253 254
296 268 263 254 269 271 267 259 254 249 246 244 245 246 248 254 256 259 260 251 250 253
331 327 291 265 258 259 261 263 263 259 255 252 250 251 251 254 258 258 254 240 249 252
343 311 294 290 278 268 264 263 263 260 259 257 252 253 256 256 256 257 254 251 250 255
337 329 309 290 287 284 280 282 278 273 261 260 257 253 257 259 259 257 256 254 259 255
308 304 297 291 288 293 293 284 281 285 282 271 261 258 261 259 257 258 255 254 257 254
297 293 287 283 283 288 291 292 291 282 283 282 273 267 261 260 260 255 253 256 254 250
293 286 281 280 282 286 287 284 283 282 281 280 275 275 275 274 266 261 254 253 254 251
295 289 286 283 282 283 283 280 279 277 277 277 276 275 270 272 275 271 259 237 257 249
298 297 293 292 285 282 281 279 277 278 279 277 270 269 273 263 266 269 265 260 258 245